Location: Jefferson
(30.9666°N, 81.7901°W)
Time: 18:45:54
(UTC+00:00)

ACS3 Solar Sail - Pass Details

Date: 25 September 2024
Orbit: 961 x 1035 km, 97.4° (Epoch: 08 October)

Event Time Altitude Azimuth Distance (km) Brightness Sun altitude
Exits shadow 02:22:36 43° 291° (WNW) 1,429 2.9 -38.7°
Drops below altitude 10° 02:27:38 10° 335° (NNW) 2,842 4.7 -39.7°
Sets 02:30:16 0° 341° (NNW) 3,795 5.4 -40.2°
